Content
SEND FEEDBACK

Daily
Averages
Monthly
Summary
Canada

ST. JOHN'S, NEWFOUNDLAND


Home > North America > Canada > Newfoundland
Elevation: 459 feet     Latitude: 47 37N     Longitude: 052 44W

WEATHER
 
SELECT A DAY
Number of Records: 208,872;   Date Range: 1/1/95 - 12/18/14
 
SHARE

PRINT THIS DATA

[ ← Previous Day ]
WEATHER ALMANAC - MARCH 19, 2013
[ Next Day → ]
[ °C ]   °F
Weather ElementAverageHighLow
Temperature24.4 °F32 °F (11:05 pm)14 °F (2:30 am)
Dewpoint21.4 °F32 °F (11:05 pm)8.6 °F (3:30 am)
Humidity88.2 %100 % (8:30 pm)72 % (3:30 pm)
Barometer29.72 in29.83 in (11:30 pm)29.65 in (1:30 pm)
Wind Speed25.6 mph36.8 mph (12:30 pm)
Wind Gust49.5 mph (2:30 pm)
Weather ElementAverage
Visibility8.5 mi
Wind DirectionNW (316.3 °)

Weather ElementTotal
Precipitation---
Heating Degree Days42 (Base 65)
Averaged from 38 records on March 19, 2013
WEATHER CONDITIONS BREAKOUT
WIND DIRECTION BREAKOUT
WEATHER BY HOUR - MARCH 19, 2013
[ °C ]   °F
Local TimeTemperatureDewpointHumidityBarometerVisibilityWind DirectionWind SpeedGust SpeedPrecipitationEventsConditions
1:30 AM15.8 °F10.4 °F79 %29.70 in15.0 miWest (280°)19.6 mphOvercast
2:30 AM14.0 °F10.4 °F86 %29.70 in15.0 miWest (280°)23.0 mphMostly Cloudy
3:30 AM14.0 °F9.0 °F73 %29.70 in15.0 miWest (280°)21.9 mphMostly Cloudy
3:30 AM14.0 °F8.6 °F79 %29.70 in15.0 miWest (280°)24.2 mphMostly Cloudy
4:30 AM14.0 °F10.4 °F86 %29.70 in15.0 miWNW (300°)17.3 mph26.5 mphMostly Cloudy
5:30 AM15.8 °F12.2 °F86 %29.70 in15.0 miWNW (300°)20.7 mph27.6 mphOvercast
6:20 AM15.8 °F12.2 °F86 %29.71 in12.0 miWNW (300°)19.6 mphSnowLight Snow
6:30 AM15.8 °F12.2 °F86 %29.70 in12.0 miWNW (300°)19.6 mph26.5 mphSnowLight Snow
7:21 AM17.6 °F15.8 °F93 %29.70 in4.0 miWNW (300°)20.7 mph27.6 mphSnowLight Snow
7:30 AM19.4 °F15.8 °F86 %29.70 in1.5 miWNW (300°)19.6 mph27.6 mphSnowLight Snow
7:49 AM21.2 °F17.6 °F86 %29.70 in4.0 miWNW (300°)24.2 mph31.1 mphSnowLight Snow
8:30 AM23.0 °F21.2 °F93 %29.70 in1.5 miNW (320°)23.0 mph32.2 mphSnowLight Snow
9:06 AM24.8 °F23.0 °F93 %29.70 in0.6 miNW (320°)25.3 mph36.8 mphSnowLight Snow
9:21 AM24.8 °F23.0 °F93 %29.70 in0.8 miNNW (330°)33.4 mph44.9 mphSnowLight Snow
9:30 AM26.0 °F23.0 °F85 %29.71 in5.0 miNNW (340°)29.9 mphSnowLight Snow
9:30 AM24.8 °F23.0 °F93 %29.70 in5.0 miNNW (340°)24.2 mph43.7 mphSnowLight Snow
10:03 AM24.8 °F23.0 °F93 %29.69 in5.0 miNNW (340°)35.7 mph46.0 mphSnowBlowing Snow
10:30 AM24.8 °F21.2 °F86 %29.70 in12.0 miNW (320°)27.6 mph44.9 mphSnowLight Snow
11:30 AM24.8 °F21.2 °F86 %29.70 in12.0 miNW (320°)31.1 mph43.7 mphSnowLight Snow
12:30 PM24.8 °F21.2 °F86 %29.68 in15.0 miNW (310°)36.8 mph48.3 mphSnowLight Snow
12:45 PM24.8 °F21.2 °F86 %29.67 in15.0 miNW (310°)33.4 mph46.0 mphSnowLow Drifting Snow
1:30 PM28.4 °F21.2 °F74 %29.65 in15.0 miNW (310°)36.8 mph47.2 mphOvercast
2:30 PM28.4 °F23.0 °F80 %29.65 in15.0 miNW (310°)36.8 mph49.5 mphOvercast
3:30 PM30.0 °F24.0 °F72 %29.67 in15.0 miNW (310°)32.2 mphPartly Cloudy
3:30 PM30.2 °F24.8 °F80 %29.67 in15.0 miNW (310°)33.4 mph43.7 mphOvercast
4:30 PM30.2 °F24.8 °F80 %29.69 in15.0 miNW (320°)33.4 mph46.0 mphOvercast
5:30 PM28.4 °F24.8 °F86 %29.71 in15.0 miNW (320°)31.1 mph40.3 mphOvercast
6:30 PM28.4 °F24.8 °F86 %29.73 in15.0 miNW (320°)32.2 mph42.6 mphOvercast
6:43 PM28.4 °F26.6 °F93 %29.74 in8.0 miNNW (330°)29.9 mph47.2 mphLight Freezing Drizzle
7:30 PM28.4 °F26.6 °F93 %29.75 in3.0 miNNW (330°)28.8 mph36.8 mphLight Freezing Drizzle
7:53 PM28.4 °F26.6 °F93 %29.75 in2.0 miNNW (330°)28.8 mph40.3 mphLight Freezing Drizzle
8:30 PM28.4 °F28.4 °F100 %29.77 in2.0 miNW (320°)21.9 mph35.7 mphLight Freezing Drizzle
9:30 PM29.0 °F29.0 °F100 %29.79 in2.0 miNNW (330°)21.9 mphRainLight Freezing Drizzle
9:30 PM30.2 °F28.4 °F93 %29.79 in2.0 miNNW (330°)20.7 mph29.9 mphLight Freezing Drizzle
10:30 PM30.2 °F30.2 °F100 %29.81 in2.0 miNNW (330°)13.8 mph24.2 mphLight Freezing Drizzle
11:05 PM32.0 °F32.0 °F100 %29.81 in1.5 miNorth (350°)15.0 mph20.7 mphLight Freezing Drizzle
11:18 PM32.0 °F32.0 °F100 %29.82 in0.8 miNorth (350°)13.8 mph19.6 mphLight Drizzle
11:30 PM32.0 °F32.0 °F100 %29.83 in0.5 miNorth (350°)11.5 mph20.7 mphFogLight Drizzle
Hourly data recorded from CYYT, located miles away from St. John's, Newfoundland







STORIES FROM OUR PARTNERS